Regional Weather Roundup
Issued by NWS Charleston, SC

Current Version | Previous Version | Graphics & Text | Print | Product List | Glossary On
Versions: 1 2 3 4 5 6 7 8 9 10 11 12 13 14 15 16 17 18 19 20 21 22 23 24 25 26 27 28 29 30 31 32 33 34 35 36 37 38 39 40 41 42 43 44 45 46 47 48 49 50
000
ASUS42 KCHS 020625
RWRCHS

REGIONAL WEATHER ROUNDUP
NATIONAL WEATHER SERVICE CHARLESTON SC
200 AM EDT THU OCT 02 2014

NOTE: "FAIR" INDICATES FEW OR NO CLOUDS BELOW 12,000 FEET WITH NO
SIGNIFICANT WEATHER AND/OR OBSTRUCTIONS TO VISIBILITY.

NOT ALL STATIONS ARE QUALITY CONTROLLED BY THE NATIONAL
WEATHER SERVICE. USE DATA WITH CAUTION...ESPECIALLY
DEWPOINT OBSERVATIONS.

SCZ027-030-031-034>040-042>050-020700-
...SOUTH CAROLINA...

CITY           SKY/WX    TMP DP  RH WIND       PRES   REMARKS
N CHARLESTON   PTCLDY    66  63  90 CALM      30.04R
6HR MIN TEMP:  66; 6HR MAX TEMP:  74;

WATERFRONT PRK   N/A     70 N/A N/A CALM        N/A
FORT JOHNSON   NOT AVBL
MOUNT PLEASANT FAIR      64  64 100 CALM      30.04S FOG
JOHNS ISLAND   CLEAR     64  64 100 CALM      30.04S
PINOPOLIS        N/A     72  64  78 MISG      29.95R
MONCKS CORNER  FAIR      64  64 100 CALM      30.04S FOG
SUMMERVILLE    FAIR      63  63 100 CALM      30.05S
BEAUFORT MCAS  PTCLDY    67  65  93 CALM      30.03S
6HR MIN TEMP:  67; 6HR MAX TEMP:  74;

BEAUFORT ARPT  FAIR      68  68 100 CALM      30.03S FOG
HILTON HEAD IS PTCLDY    66  66 100 CALM      30.04S
GEORGETOWN     NOT AVBL
WALTERBORO     PTCLDY    64 N/A N/A CALM      30.05S
ORANGEBURG     FOG       65  63  93 CALM      30.05S VSB 1
6HR MIN TEMP:  65; 6HR MAX TEMP:  70;

BARNWELL       FAIR      64  63  94 CALM      30.05F
AIKEN          FAIR      64  64 100 CALM      30.09S
MANNING        FAIR      63 N/A N/A CALM      30.05S
KINGSTREE      NOT AVBL
COLUMBIA       PTCLDY    69  63  81 W3        30.04R
6HR MIN TEMP:  67; 6HR MAX TEMP:  79;

SUMTER         CLEAR     64  62  93 SE2       30.04R
6HR MIN TEMP:  64; 6HR MAX TEMP:  75;

FLORENCE       MOCLDY    67  64  90 CALM      30.05R
6HR MIN TEMP:  66; 6HR MAX TEMP:  74;

MYRTLE BEACH   CLEAR     66  64  94 CALM      30.04S
N MYRTLE BEACH CLEAR     65  64  97 CALM      30.04R FOG
6HR MIN TEMP:  64; 6HR MAX TEMP:  71;


$$

GAZ063-065-086>088-099>101-113>116-118-119-134-136>141-150-020700-
...GEORGIA...

CITY           SKY/WX    TMP DP  RH WIND       PRES   REMARKS
SAVANNAH ARPT  PTCLDY    67  63  87 CALM      30.04S
6HR MIN TEMP:  66; 6HR MAX TEMP:  75;

HUNTER AAF     CLEAR     65  65  99 CALM      30.01F
6HR MIN TEMP:  65; 6HR MAX TEMP:  73;

FORT STEWART   CLEAR     63  61  94 CALM      30.02S
6HR MIN TEMP:  63; 6HR MAX TEMP:  71;

STATESBORO     NOT AVBL
SYLVANIA       PTCLDY    66  66  98 CALM      30.05S FOG
CLAXTON        FAIR      63  63 100 CALM      30.04S
THOMSON        CLEAR     66  66 100 CALM      30.09S
AUGUSTA-BUSH   CLEAR     60  60 100 CALM      30.04S
6HR MIN TEMP:  60; 6HR MAX TEMP:  70;

AUGUSTA-DANIEL CLEAR     70  63  78 SE3       30.06R
SWAINSBORO     FAIR      68  68 100 CALM      30.06R
VIDALIA        CLEAR     66  64  94 CALM      30.05R
ALMA           CLOUDY    66  65  96 CALM      30.03S FOG
6HR MIN TEMP:  65; 6HR MAX TEMP:  72;

WAYCROSS       MOCLDY    72  72  99 CALM      30.03S
JESUP          CLOUDY    68  68 100 CALM      30.03S
BRUNSWICK        N/A     68  64  88 CALM      30.03S VSB 1/4
SAINT SIMONS   CLEAR     70  68  93 CALM      30.01F
6HR MIN TEMP:  70; 6HR MAX TEMP:  75;


$$

SCZ027-028-034-036>038-045-046-048>050-GAZ119-141-020700-
...LAKE AND SUPPLEMENTAL COASTAL OBSERVATIONS...

STATION/POSITION TIME  TEMP    WIND        PRES    WAVE   SWELL
                       AIR SEA DIR/SP/G            HT/PER HT/PER/DIR
                 (UTC) (F)     (DEG/KT/KT) (MB)    (FT/S) (FT/S/D)
UPR LAKE MARION  NOT AVBL
WINYAH BAY       0600   66     310/  2     1017.0S
LAKE MURRAY      0500   73     210/ 10/ 11 1016.9R
ACE BASIN NERRS  0600   65        CALM     1017.0S
FORT PULASKI     0600   74      90/  1/  1 1017.1S
SAPELO ISLAND    NOT AVBL

$$

ANZ835-935-AMZ111-154-330-350-352-354-374-450-454-472-020700-
...C-MAN AND BUOY OBSERVATIONS...

STATION/POSITION TIME  TEMP    WIND        PRES    WAVE   SWELL
                       AIR SEA DIR/SP/G            HT/PER HT/PER/DIR
                 (UTC) (F)     (DEG/KT/KT) (MB)    (FT/S) (FT/S/D)
FOLLY BEACH CMAN 0600   75     100/  4/  5 1017.5R
BUOY 41004       0600   78 81   90/ 10/ 12 1016.4R   2/ 6   2/ 6
BUOY 41008       0600   78 79   90/ 10/ 12 1015.9F   2/ 8   2/ 70/ 8
5E ST. MARYS GA  0600      79                N/A     3/ 5
FRYING PAN BUOY  NOT AVBL
BUOY 41025       0600   70      10/ 14/ 16 1016.5S   3/ 7   2/ 50/ 7
CAPE LOOKOUT NC  0600   71      30/  6/  8 1017.1R
BUOY 41002       0455   79 80   40/ 10/ 12 1015.6R   3/ 6   3/ 10/ 6
BUOY 41010       0600   78 85   90/ 16/ 17 1015.0F   3/ 7   2/ 40/ 8
BUOY 41012       NOT AVBL
ST AUGUSTINE FL  0600   79      70/  8/  9 1016.1F
CAPERS NEARSHORE 0500   75     100/  6/  6   N/A
FRIPP NEARSHORE  NOT AVBL


$$


USA.gov is the U.S. government's official web portal to all federal, state and local government web resources and services.